Regional Weather Roundup
Issued by NWS

Home | Current Version | Previous Version | Graphics & Text | Print | Product List | Glossary On
Versions: 1 2 3 4 5 6 7 8 9 10 11 12 13 14 15 16 17 18 19 20 21 22 23 24 25 26 27 28 29 30 31 32 33 34 35 36 37 38 39 40 41 42 43 44 45 46 47 48 49 50
000
ASUS43 KDTX 182101
RWRMI
MICHIGAN HOURLY REGIONAL WEATHER ROUNDUP
NATIONAL WEATHER SERVICE DETROIT/PONTIAC MI
500 PM EDT THU SEP 18 2014

NOTE: "FAIR" INDICATES FEW OR NO CLOUDS BELOW 12,000 FEET WITH NO
SIGNIFICANT WEATHER AND/OR OBSTRUCTION TO VISIBILITY.

MIZ047>049-052>055-059>063-066>070-074>076-081>083-182200-
SOUTHEAST LOWER MICHIGAN

CITY           SKY/WX    TMP DP  RH WIND       PRES   REMARKS
ADRIAN         SUNNY     69  50  50 N9        30.13S
ALMA           CLOUDY    57  50  77 NE8       30.18F
ANN ARBOR      PTSUNNY   68  50  52 NE10      30.13S
BAD AXE        CLOUDY    53  44  72 NE8       30.20F
CARO           CLOUDY    56  47  71 N12       30.18S
DETROIT CITY   PTSUNNY   63  52  67 E14       30.15R
DETROIT        PTSUNNY   68  51  54 N8        30.14S
FLINT          CLOUDY    60  50  69 NE9       30.17S
GROSSE ILE     PTSUNNY   64  54  68 NE9       30.13S
HILLSDALE      MOSUNNY   67  50  55 NE6       30.13S
HOWELL         MOSUNNY   60  52  73 N6        30.15S

CITY           SKY/WX    TMP DP  RH WIND       PRES   REMARKS
JACKSON        MOSUNNY   68  51  54 VRB5      30.13F
LAMBERTVILLE   MOSUNNY   64  54  68 E3        30.13S
LANSING        CLOUDY    61  51  70 N6        30.17S
LAPEER         CLOUDY    56  48  73 MISG      30.18F
MASON          PTSUNNY   63  52  67 N7        30.15S
MONROE         CLOUDY    66  52  59 E5        30.11S
MT. CLEMENS    PTSUNNY   60  53  79 NE10      30.14S
PONTIAC        PTSUNNY   61  49  64 N9        30.15S
PORT HOPE        N/A     52  41  66 NE9       30.20S
PORT HURON     MOSUNNY   55  48  76 N8        30.18S
TRI CITIES     CLOUDY    56  46  69 E12       30.20F
TROY           PTSUNNY   64  51  63 N10G16    30.16S
SAGINAW HB     CLOUDY    57  46  67 NE9       30.18F
$$
MIZ043>046-050>051-056>058-064>065-071>073-077>080-182200-
SOUTHWEST LOWER MICHIGAN

CITY           SKY/WX    TMP DP  RH WIND       PRES   REMARKS
BATTLE CREEK   MOSUNNY   68  50  52 NE9       30.13F
BENTON HARBOR  SUNNY     66  50  56 N9        30.12F
BIG RAPIDS     PTSUNNY   59  54  83 E8        30.15F
COLDWATER      MOSUNNY   69  52  54 N8        30.12F
FREMONT        MOCLDY    62  52  69 E6        30.14F
HOLLAND        SUNNY     70  54  56 W9        30.13F
GRAND RAPIDS   MOSUNNY   66  55  67 NE12      30.14F
IONIA          MOCLDY    59  52  77 NE7       30.15F
KALAMAZOO      MOSUNNY   68  49  50 VRB6      30.13F
LUDINGTON      MOSUNNY   63  52  68 N8        30.15F
MARSHALL       PTSUNNY   67  50  53 NE6       30.12F
MOUNT PLEASANT CLOUDY    56  50  80 E5        30.18F
MUSKEGON       MOSUNNY   68  53  58 W6        30.14F
SOUTH HAVEN    SUNNY     68  53  58 N7        30.12S
$$
MIZ016>042-182200-
NORTHERN LOWER MICHIGAN

CITY           SKY/WX    TMP DP  RH WIND       PRES   REMARKS
ALPENA         MOSUNNY   52  39  61 SE7       30.22S
BEAVER ISLAND  SUNNY     54  42  64 SE6       30.19F
CADILLAC       CLOUDY    62  48  60 CALM      30.14F
CHARLEVOIX     SUNNY     57  40  53 E7        30.20F
FRANKFORT      SUNNY     60  44  56 N6        30.16F
GAYLORD        SUNNY     55  38  52 S3        30.17F
GRAYLING       SUNNY     56  40  54 SE5       30.18F
HARBOR SPRINGS SUNNY     58  38  47 E5        30.18F
HOUGHTON LAKE  SUNNY     59  42  53 VRB3      30.18F
MANISTEE       SUNNY     61  46  59 NW6       30.17F
OSCODA         CLOUDY    52  39  61 E9        30.21S
PELLSTON       SUNNY     56  40  55 E9G18     30.19F
TRAVERSE CITY  MOSUNNY   59  42  53 N8        30.15F
$$
MIZ007>008-015-182200-
EASTERN UPPER MICHIGAN

CITY           SKY/WX    TMP DP  RH WIND       PRES   REMARKS
KINROSS        MOSUNNY   52  36  54 SE7       30.20F
MACKINAC ISLAN SUNNY     50  37  61 E12       30.20F
NEWBERRY       SUNNY     53  37  53 S7        30.18F
S. S. MARIE    SUNNY     51  33  50 VRB6      30.20F
$$
MIZ004>006-011>014-085-182200-
CENTRAL UPPER MICHIGAN

CITY           SKY/WX    TMP DP  RH WIND       PRES   REMARKS
MANISTIQUE     MOSUNNY   52  41  65 S6        30.19S
ESCANABA       SUNNY     52  39  62 SE8       30.18F
MENOMINEE      CLOUDY    54  43  66 E8        30.17S
SAWYER-GWINN   SUNNY     55  37  50 S8        30.14F
$$
MIZ001>003-009>011-084-182200-
WESTERN UPPER MICHIGAN

CITY           SKY/WX    TMP DP  RH WIND       PRES   REMARKS
IRON MOUNTAIN  CLOUDY    57  41  55 S8        30.13F
HOUGHTON         N/A    N/A N/A N/A MISG      30.14F
COPPER HARBOR    N/A     48  36  63 VRB7      30.16F
IRONWOOD       CLOUDY    54  48  82 SW7       30.10S
$$

ABBREVIATIONS USED IN REMARKS
   TC - TEMPERATURE IN CELSIUS
  WCI - WIND CHILL INDEX
   HX - HEAT INDEX
  VSB - VISIBILITY



USA.gov is the U.S. government's official web portal to all federal, state and local government web resources and services.